When you browse on this site, cookies collect data to enhance your experience and personalize the content and advertising you see.
Visit our Privacy Policy to learn more. By continuing to use the site, you agree to this use of cookies and data.
  • în România
  • Lista ţărilor
  • Pe 7 zile
  • Temperatura apei
  • Hartă satelitară
  • Meteo pe hartă
  • Widget-uri
  • user-avatar
    Intrare

    Meteo pe oră la Tuchola

    Astăzi, 19 Martie, Marţi

    Timp Temperatura Precipitaţii Vânt Presiune Umiditate
    00:00 +1°C° 0 mm 5 m/s 749 mmHg 84%
    01:00 0°C° 0 mm 5 m/s 750 mmHg 86%
    02:00 0°C° 0 mm 5 m/s 750 mmHg 88%
    03:00 0°C° 0 mm 4 m/s 751 mmHg 89%
    04:00 -1°C° 0 mm 4 m/s 751 mmHg 90%
    05:00 -1°C° 0 mm 4 m/s 752 mmHg 90%
    06:00 -1°C° 0 mm 4 m/s 752 mmHg 91%
    07:00 -1°C° 0 mm 4 m/s 753 mmHg 91%
    08:00 +1°C° 0 mm 4 m/s 754 mmHg 83%
    09:00 +2°C° 0 mm 5 m/s 754 mmHg 74%
    10:00 +5°C° 0 mm 5 m/s 755 mmHg 66%
    11:00 +5°C° 0 mm 5 m/s 755 mmHg 60%
    12:00 +6°C° 0 mm 5 m/s 756 mmHg 54%
    13:00 +7°C° 0 mm 5 m/s 756 mmHg 48%
    14:00 +6°C° 0 mm 5 m/s 756 mmHg 46%
    15:00 +6°C° 0 mm 5 m/s 757 mmHg 44%
    16:00 +6°C° 0 mm 5 m/s 757 mmHg 42%
    17:00 +4°C° 0 mm 4 m/s 758 mmHg 48%
    18:00 +3°C° 0 mm 3 m/s 758 mmHg 54%
    19:00 +2°C° 0 mm 2 m/s 759 mmHg 60%
    20:00 +2°C° 0 mm 2 m/s 759 mmHg 65%
    21:00 +1°C° 0 mm 2 m/s 760 mmHg 69%
    22:00 -1°C° 0 mm 2 m/s 760 mmHg 74%
    23:00 -1°C° 0 mm 2 m/s 761 mmHg 75%

    Mâine, 20 Martie, Miercuri

    Timp Temperatura Precipitaţii Vânt Presiune Umiditate
    00:00 -1°C° 0 mm 2 m/s 761 mmHg 76%
    01:00 -1°C° 0 mm 2 m/s 761 mmHg 78%
    02:00 -1°C° 0 mm 2 m/s 762 mmHg 78%
    03:00 -1°C° 0 mm 2 m/s 762 mmHg 78%
    04:00 -1°C° 0 mm 2 m/s 762 mmHg 78%
    05:00 -1°C° 0 mm 2 m/s 762 mmHg 75%
    06:00 +1°C° 0 mm 2 m/s 763 mmHg 73%
    07:00 +1°C° 0 mm 2 m/s 763 mmHg 71%
    08:00 +2°C° 0 mm 3 m/s 763 mmHg 62%
    09:00 +4°C° 0 mm 3 m/s 763 mmHg 54%
    10:00 +6°C° 0 mm 4 m/s 764 mmHg 45%
    11:00 +6°C° 0 mm 4 m/s 763 mmHg 46%
    12:00 +7°C° 0 mm 5 m/s 763 mmHg 47%
    13:00 +8°C° 0 mm 5 m/s 763 mmHg 48%
    14:00 +8°C° 0 mm 5 m/s 763 mmHg 49%
    15:00 +8°C° 0 mm 5 m/s 763 mmHg 49%
    16:00 +8°C° 0 mm 5 m/s 762 mmHg 49%
    17:00 +7°C° 0 mm 5 m/s 762 mmHg 56%
    18:00 +6°C° 0 mm 4 m/s 762 mmHg 64%
    19:00 +5°C° 0 mm 4 m/s 762 mmHg 71%
    20:00 +6°C° 0 mm 4 m/s 763 mmHg 76%
    21:00 +6°C° 0 mm 4 m/s 763 mmHg 80%
    22:00 +6°C° 0 mm 4 m/s 763 mmHg 84%
    23:00 +7°C° 0 mm 3 m/s 763 mmHg 87%

    Poimâine, 21 Martie, Joi

    Timp Temperatura Precipitaţii Vânt Presiune Umiditate
    00:00 +7°C° 0 mm 3 m/s 763 mmHg 90%
    01:00 +7°C° 0 mm 3 m/s 763 mmHg 93%
    02:00 +7°C° 0 mm 3 m/s 763 mmHg 94%
    03:00 +5°C° 0 mm 3 m/s 763 mmHg 95%
    04:00 +6°C° 0 mm 2 m/s 763 mmHg 95%
    05:00 +5°C° 0 mm 3 m/s 763 mmHg 95%
    06:00 +7°C° 0 mm 3 m/s 764 mmHg 95%
    07:00 +7°C° 0 mm 3 m/s 764 mmHg 95%
    08:00 +7°C° 0 mm 3 m/s 764 mmHg 91%
    09:00 +8°C° 0 mm 3 m/s 764 mmHg 88%
    10:00 +9°C° 0 mm 3 m/s 764 mmHg 85%
    11:00 +10°C° 0 mm 3 m/s 764 mmHg 81%
    12:00 +11°C° 0 mm 3 m/s 764 mmHg 77%
    13:00 +12°C° 0 mm 3 m/s 764 mmHg 74%
    14:00 +12°C° 0 mm 3 m/s 763 mmHg 74%
    15:00 +12°C° 0 mm 3 m/s 763 mmHg 74%
    16:00 +13°C° 0 mm 2 m/s 763 mmHg 74%
    17:00 +12°C° 0 mm 2 m/s 763 mmHg 78%
    18:00 +11°C° 0 mm 3 m/s 763 mmHg 81%
    19:00 +10°C° 0 mm 3 m/s 763 mmHg 84%
    20:00 +10°C° 0 mm 3 m/s 763 mmHg 85%
    21:00 +10°C° 0 mm 3 m/s 763 mmHg 87%
    22:00 +10°C° 0 mm 3 m/s 762 mmHg 88%
    23:00 +10°C° 0 mm 3 m/s 762 mmHg 90%

    22 Martie, Vineri

    Timp Temperatura Precipitaţii Vânt Presiune Umiditate
    00:00 +10°C° 0 mm 3 m/s 762 mmHg 91%
    01:00 +10°C° 0 mm 3 m/s 762 mmHg 92%
    02:00 +9°C° 0 mm 3 m/s 762 mmHg 93%
    03:00 +8°C° 0 mm 3 m/s 762 mmHg 94%
    04:00 +8°C° 0 mm 3 m/s 762 mmHg 95%
    05:00 +8°C° 0 mm 3 m/s 762 mmHg 94%
    06:00 +8°C° 0 mm 3 m/s 762 mmHg 93%
    07:00 +7°C° 0 mm 4 m/s 762 mmHg 92%
    08:00 +8°C° 0 mm 4 m/s 762 mmHg 86%
    09:00 +10°C° 0 mm 5 m/s 762 mmHg 81%
    10:00 +12°C° 0 mm 5 m/s 762 mmHg 76%
    11:00 +13°C° 0 mm 5 m/s 762 mmHg 73%
    12:00 +13°C° 0 mm 5 m/s 761 mmHg 69%
    13:00 +14°C° 0 mm 5 m/s 761 mmHg 66%
    14:00 +14°C° 0 mm 4 m/s 761 mmHg 69%
    15:00 +13°C° 0 mm 3 m/s 761 mmHg 71%
    16:00 +14°C° 0 mm 2 m/s 761 mmHg 73%
    17:00 +13°C° 0 mm 2 m/s 761 mmHg 78%
    18:00 +12°C° 0 mm 1 m/s 761 mmHg 82%
    19:00 +11°C° 0 mm 1 m/s 761 mmHg 87%
    20:00 +10°C° 0 mm 1 m/s 760 mmHg 88%
    21:00 +10°C° 0 mm 1 m/s 760 mmHg 90%
    22:00 +9°C° 0 mm 1 m/s 760 mmHg 91%
    23:00 +9°C° 0 mm 1 m/s 760 mmHg 91%

    23 Martie, Sâmbătă

    Timp Temperatura Precipitaţii Vânt Presiune Umiditate
    00:00 +8°C° 0 mm 2 m/s 760 mmHg 92%
    01:00 +8°C° 0 mm 2 m/s 760 mmHg 92%
    02:00 +8°C° 0 mm 3 m/s 759 mmHg 92%
    03:00 +8°C° 0 mm 3 m/s 759 mmHg 92%
    04:00 +8°C° 0 mm 3 m/s 759 mmHg 92%
    05:00 +7°C° 0 mm 4 m/s 758 mmHg 91%
    06:00 +8°C° 0 mm 4 m/s 758 mmHg 90%
    07:00 +8°C° 0 mm 4 m/s 758 mmHg 89%
    08:00 +10°C° 0 mm 4 m/s 758 mmHg 81%
    09:00 +12°C° 0 mm 5 m/s 758 mmHg 73%
    10:00 +14°C° 0 mm 5 m/s 758 mmHg 65%
    11:00 +15°C° 0 mm 5 m/s 758 mmHg 61%
    12:00 +16°C° 0 mm 5 m/s 758 mmHg 57%
    13:00 +17°C° 0 mm 6 m/s 758 mmHg 53%
    14:00 +16°C° 0 mm 5 m/s 758 mmHg 55%
    15:00 +16°C° 0 mm 5 m/s 757 mmHg 57%
    16:00 +15°C° 0 mm 5 m/s 757 mmHg 59%
    17:00 +14°C° 0 mm 4 m/s 757 mmHg 66%
    18:00 +12°C° 0 mm 3 m/s 757 mmHg 72%
    19:00 +10°C° 0 mm 2 m/s 757 mmHg 79%
    20:00 +10°C° 0 mm 2 m/s 757 mmHg 82%
    21:00 +9°C° 0 mm 2 m/s 757 mmHg 85%
    22:00 +9°C° 0 mm 1 m/s 757 mmHg 88%
    23:00 +9°C° 0 mm 1 m/s 757 mmHg 89%

    24 Martie, Duminică

    Timp Temperatura Precipitaţii Vânt Presiune Umiditate
    00:00 +9°C° 0 mm 1 m/s 757 mmHg 91%
    01:00 +8°C° 0 mm 1 m/s 756 mmHg 92%
    02:00 +8°C° 0 mm 1 m/s 756 mmHg 92%
    03:00 +8°C° 0 mm 1 m/s 755 mmHg 92%
    04:00 +7°C° 0 mm 2 m/s 755 mmHg 92%
    05:00 +7°C° 0 mm 2 m/s 755 mmHg 91%
    06:00 +8°C° 0 mm 2 m/s 754 mmHg 90%
    07:00 +8°C° 0 mm 2 m/s 754 mmHg 89%
    08:00 +10°C° 0.1 mm 3 m/s 754 mmHg 82%
    09:00 +12°C° 0.1 mm 3 m/s 754 mmHg 75%
    10:00 +13°C° 0.1 mm 4 m/s 753 mmHg 68%
    11:00 +13°C° 0.1 mm 4 m/s 753 mmHg 67%
    12:00 +13°C° 0.1 mm 5 m/s 753 mmHg 65%
    13:00 +13°C° 0.1 mm 5 m/s 753 mmHg 64%
    14:00 +12°C° 0 mm 5 m/s 753 mmHg 65%
    15:00 +10°C° 0 mm 6 m/s 752 mmHg 66%
    16:00 +10°C° 0 mm 6 m/s 752 mmHg 67%
    17:00 +8°C° 0 mm 6 m/s 752 mmHg 68%
    18:00 +7°C° 0 mm 5 m/s 752 mmHg 69%
    19:00 +6°C° 0 mm 5 m/s 752 mmHg 69%
    20:00 +5°C° 0 mm 5 m/s 752 mmHg 70%
    21:00 +5°C° 0 mm 5 m/s 752 mmHg 72%
    22:00 +3°C° 0 mm 5 m/s 752 mmHg 73%
    23:00 +3°C° 0 mm 6 m/s 752 mmHg 73%
    Arată mai mult